GW0781 Weather Reports


time (UTC)temp
C
wind
direction
speed
KPH
gust
KPH
rain 1hr
cm
rain 24hr
cm
rain mn
cm
humidity
%
barometer
mb
20260505122036 5 352 1.6 8.0 0.00 0.00 0.00 81 1019.4
20260505121550 5 352 1.6 4.8 0.00 0.00 0.00 81 1019.3
20260505121036 5 13 1.6 4.8 0.00 0.00 0.00 81 1019.3
20260505120627 5 0 1.6 4.8 0.00 0.00 0.00 81 1019.3
20260505120111 5 349 1.6 6.4 0.00 0.00 0.00 81 1019.3
20260505115535 5 0 1.6 6.4 0.00 0.00 0.00 81 1019.1
20260505115036 5 0 1.6 6.4 0.00 0.00 0.00 81 1019.1
20260505114549 5 348 1.6 4.8 0.00 0.00 0.00 81 1019.1
20260505114036 5 13 1.6 4.8 0.00 0.00 0.00 80 1019.0
20260505113536 5 9 1.6 4.8 0.00 0.00 0.00 80 1018.9
20260505113051 5 360 1.6 4.8 0.00 0.00 0.00 80 1018.7
20260505112536 5 5 0.0 3.2 0.00 0.00 0.00 79 1018.7
20260505112036 6 349 1.6 4.8 0.00 0.00 0.00 79 1018.7
20260505111550 6 346 1.6 8.0 0.00 0.00 0.00 79 1018.7
20260505111036 6 311 1.6 9.7 0.00 0.00 0.00 79 1018.7
20260505110535 5 36 4.8 9.7 0.00 0.00 0.00 79 1018.7
20260505102036 6 351 3.2 6.4 0.00 0.00 0.00 79 1018.5
20260505101552 6 352 3.2 6.4 0.00 0.00 0.00 79 1018.6
20260505101036 6 347 1.6 6.4 0.00 0.00 0.00 79 1018.5
20260505100536 6 324 1.6 9.7 0.00 0.00 0.00 79 1018.4
20260505100041 6 352 3.2 9.7 0.00 0.00 0.00 78 1018.4
20260505095536 6 23 3.2 8.0 0.00 0.00 0.00 79 1018.6
20260505095035 6 349 3.2 9.7 0.00 0.00 0.00 79 1018.5
20260505094538 6 311 3.2 9.7 0.00 0.00 0.00 79 1018.4
20260505094039 6 269 4.8 9.7 0.00 0.00 0.00 79 1018.6
20260505093537 6 315 3.2 9.7 0.00 0.00 0.00 79 1018.4
20260505093048 6 339 3.2 14.5 0.00 0.00 0.00 79 1018.4
20260505092537 6 303 4.8 14.5 0.00 0.00 0.00 79 1018.5
20260505092036 6 333 3.2 12.9 0.00 0.00 0.00 79 1018.6
20260505091551 6 302 4.8 9.7 0.00 0.00 0.00 80 1018.5
20260505091036 6 312 4.8 9.7 0.00 0.00 0.00 80 1018.5
20260505090536 6 293 3.2 9.7 0.00 0.00 0.00 80 1018.6
20260505090051 6 317 3.2 9.7 0.00 0.00 0.00 80 1018.6
20260505085537 6 301 3.2 14.5 0.00 0.00 0.00 80 1018.6
20260505085036 6 330 4.8 14.5 0.00 0.00 0.00 80 1018.6
20260505084550 6 280 4.8 14.5 0.00 0.00 0.00 80 1018.5
20260505084035 6 285 6.4 14.5 0.00 0.00 0.00 80 1018.6
20260505083535 6 332 3.2 8.0 0.00 0.00 0.00 81 1018.6
20260505083051 6 339 4.8 8.0 0.00 0.00 0.00 81 1018.6
20260505082536 6 352 3.2 8.0 0.00 0.00 0.00 81 1018.5
20260505082036 6 324 3.2 8.0 0.00 0.00 0.00 81 1018.6
20260505081548 6 329 1.6 6.4 0.00 0.00 0.00 81 1018.5
20260505081036 6 340 3.2 9.7 0.00 0.00 0.00 81 1018.5
20260505080535 6 348 1.6 9.7 0.00 0.00 0.00 81 1018.4
20260505080052 6 355 3.2 9.7 0.00 0.00 0.00 80 1018.4
20260505075538 6 327 3.2 12.9 0.00 0.00 0.00 80 1018.5
20260505075035 6 314 3.2 12.9 0.00 0.00 0.00 80 1018.4
20260505074549 6 335 3.2 6.4 0.00 0.00 0.00 80 1018.4
20260505074035 6 323 3.2 6.4 0.00 0.00 0.00 80 1018.4
20260505073539 6 346 3.2 6.4 0.00 0.00 0.00 80 1018.4
20260505073100 6 325 3.2 6.4 0.00 0.00 0.00 80 1018.5
20260505072541 6 344 1.6 6.4 0.00 0.00 0.00 80 1018.5
20260505072037 6 343 1.6 8.0 0.00 0.00 0.00 80 1018.6
20260505071541 6 350 3.2 8.0 0.00 0.00 0.00 80 1018.6
20260505071037 6 341 3.2 8.0 0.00 0.00 0.00 80 1018.7
20260505070536 6 335 3.2 6.4 0.00 0.00 0.00 79 1018.7
20260505070049 6 343 1.6 6.4 0.00 0.00 0.00 79 1018.6
20260505065536 6 333 3.2 6.4 0.00 0.00 0.00 79 1018.6
20260505065035 6 5 1.6 6.4 0.00 0.00 0.00 79 1018.7
20260505064551 6 352 3.2 6.4 0.00 0.00 0.00 79 1018.8
20260505064035 6 326 1.6 6.4 0.00 0.00 0.00 78 1018.7
20260505063536 6 339 3.2 8.0 0.00 0.00 0.00 78 1018.8
20260505063046 6 9 3.2 8.0 0.00 0.00 0.00 78 1018.8
20260505062534 6 348 3.2 11.3 0.00 0.00 0.00 78 1018.9
20260505062035 6 325 3.2 11.3 0.00 0.00 0.00 78 1018.9
20260505061554 6 333 3.2 11.3 0.00 0.00 0.00 78 1019.0
20260505061036 6 344 3.2 8.0 0.00 0.00 0.00 78 1019.1
20260505060536 6 348 3.2 6.4 0.00 0.00 0.00 78 1019.1
20260505060042 6 342 3.2 6.4 0.00 0.00 0.00 78 1019.1
20260505055536 6 325 3.2 8.0 0.00 0.00 0.00 78 1019.1
20260505055036 6 345 1.6 8.0 0.00 0.00 0.00 78 1019.1
20260505054559 6 328 1.6 9.7 0.00 0.00 0.00 77 1019.1
20260505054036 7 5 3.2 9.7 0.00 0.00 0.00 77 1019.1
20260505053537 7 336 1.6 9.7 0.00 0.00 0.00 77 1019.3
20260505053101 7 263 3.2 9.7 0.00 0.00 0.00 77 1019.2
20260505052535 7 321 3.2 12.9 0.00 0.00 0.00 77 1019.2
20260505052035 7 311 3.2 12.9 0.00 0.00 0.00 77 1019.1
20260505051546 7 352 3.2 12.9 0.00 0.00 0.00 77 1019.3
20260505051036 7 348 3.2 9.7 0.00 0.00 0.00 77 1019.3
20260505050537 7 346 3.2 9.7 0.00 0.00 0.00 78 1019.3
20260505041555 7 336 3.2 11.3 0.00 0.00 0.00 78 1019.5
20260505041036 7 29 3.2 11.3 0.00 0.00 0.00 78 1019.4
20260505040536 7 338 1.6 8.0 0.00 0.00 0.00 78 1019.4
20260505040050 7 342 3.2 8.0 0.00 0.00 0.00 78 1019.4
20260505035537 7 348 3.2 6.4 0.00 0.00 0.00 78 1019.5
20260505035035 7 349 1.6 11.3 0.00 0.00 0.00 78 1019.6
20260505034549 7 9 3.2 11.3 0.00 0.00 0.00 77 1019.7
20260505034044 7 342 3.2 9.7 0.00 0.00 0.00 78 1019.6
20260505033536 7 342 3.2 8.0 0.00 0.00 0.00 77 1019.6
20260505033040 7 344 1.6 6.4 0.00 0.00 0.00 77 1019.7
20260505032535 7 5 1.6 8.0 0.00 0.00 0.00 77 1019.7
20260505032035 7 11 3.2 8.0 0.00 0.00 0.00 77 1019.7
20260505031605 7 326 3.2 6.4 0.00 0.00 0.00 77 1019.8
20260505031035 7 71 3.2 6.4 0.00 0.00 0.00 77 1019.8
20260505030537 7 342 1.6 6.4 0.00 0.00 0.00 77 1019.8
20260505030049 7 61 3.2 6.4 0.00 0.00 0.00 77 1019.9
20260505025536 7 350 3.2 6.4 0.00 0.00 0.00 77 1019.9
20260505025035 7 352 1.6 6.4 0.00 0.00 0.00 77 1020.0
20260505024545 7 339 1.6 6.4 0.00 0.00 0.00 77 1020.0
20260505024038 7 340 1.6 8.0 0.00 0.00 0.00 78 1019.9
20260505023536 7 343 1.6 8.0 0.00 0.00 0.00 77 1020.0
20260505023049 7 352 3.2 8.0 0.00 0.00 0.00 77 1020.0
20260505022536 7 5 1.6 6.4 0.00 0.00 0.00 77 1019.9
20260505022037 7 352 1.6 8.0 0.00 0.00 0.00 78 1020.0
20260505021550 7 24 3.2 8.0 0.00 0.00 0.00 78 1019.9
20260505021036 8 349 3.2 8.0 0.00 0.00 0.00 78 1019.9
20260505020537 8 338 1.6 6.4 0.00 0.00 0.00 78 1019.9
20260505020042 8 29 1.6 6.4 0.00 0.00 0.00 78 1019.9
20260505015537 8 317 1.6 8.0 0.00 0.00 0.00 79 1019.8
20260505015037 8 331 1.6 8.0 0.00 0.00 0.00 79 1019.7
20260505014547 8 317 3.2 8.0 0.00 0.00 0.00 79 1019.8
20260505014035 8 315 3.2 8.0 0.00 0.00 0.00 79 1019.8
20260505013536 8 13 1.6 9.7 0.00 0.00 0.00 79 1019.6
20260505013104 8 37 1.6 9.7 0.00 0.00 0.00 79 1019.7
20260505012535 8 42 1.6 8.0 0.00 0.00 0.00 79 1019.7
20260505012036 8 342 1.6 6.4 0.00 0.00 0.00 78 1019.5
20260505011547 8 348 1.6 8.0 0.00 0.00 0.00 78 1019.6
20260505011037 8 360 3.2 8.0 0.00 0.00 0.00 78 1019.6
20260505010537 8 347 3.2 14.5 0.00 0.00 0.00 77 1019.4
20260505010046 9 5 1.6 14.5 0.00 0.00 0.00 77 1019.3
20260505005536 9 352 1.6 14.5 0.00 0.00 0.00 76 1019.4
20260505005037 9 5 1.6 8.0 0.00 0.00 0.00 75 1019.3
20260505004555 9 352 1.6 6.4 0.00 0.00 0.00 75 1019.2
20260505004037 10 5 1.6 4.8 0.00 0.00 0.00 74 1019.2
20260505003535 10 0 1.6 4.8 0.00 0.00 0.00 73 1019.3
20260505003047 10 0 1.6 4.8 0.00 0.00 0.00 72 1019.3
20260505002538 10 0 1.6 8.0 0.00 0.00 0.00 72 1019.3
20260505002036 10 42 1.6 8.0 0.00 0.00 0.00 71 1019.2
20260505001551 11 40 1.6 8.0 0.00 0.00 0.00 70 1019.2
20260505001035 11 345 1.6 8.0 0.00 0.00 0.00 69 1019.2
20260505000536 11 0 1.6 4.8 0.00 0.00 0.00 68 1019.2
20260505000106 11 132 1.6 6.4 0.00 0.00 0.00 67 1019.2
20260504235536 11 352 1.6 6.4 0.00 0.00 0.00 66 1019.1
20260504235037 12 0 1.6 6.4 0.00 0.00 0.00 66 1019.1
20260504234544 12 352 0.0 6.4 0.00 0.00 0.00 65 1019.1
20260504234038 12 346 1.6 6.4 0.00 0.00 0.00 64 1019.1
20260504233536 12 352 1.6 4.8 0.00 0.00 0.00 63 1019.1
20260504233055 12 5 1.6 6.4 0.00 0.00 0.00 62 1019.1
20260504232536 12 61 1.6 6.4 0.00 0.00 0.00 60 1019.1
20260504232035 13 0 1.6 6.4 0.00 0.00 0.00 60 1019.1
20260504231550 13 0 1.6 8.0 0.00 0.00 0.00 60 1019.1
20260504231036 13 0 1.6 8.0 0.00 0.00 0.00 58 1019.1
20260504230539 13 34 1.6 8.0 0.00 0.00 0.00 58 1019.1
20260504230104 13 0 0.0 8.0 0.00 0.00 0.00 56 1019.0
20260504225536 13 0 1.6 8.0 0.00 0.00 0.00 55 1019.1
20260504225037 13 12 0.0 4.8 0.00 0.00 0.00 54 1019.0
20260504224549 13 19 1.6 4.8 0.00 0.00 0.00 52 1019.1
20260504224035 14 15 0.0 6.4 0.00 0.00 0.00 49 1019.1
20260504223535 14 134 1.6 6.4 0.00 0.00 0.00 43 1019.0
20260504223046 14 263 1.6 8.0 0.00 0.00 0.00 42 1019.1
20260504222536 14 92 1.6 8.0 0.00 0.00 0.00 40 1019.1
20260504222036 15 348 1.6 6.4 0.00 0.00 0.00 42 1019.1
20260504221554 15 326 1.6 6.4 0.00 0.00 0.00 41 1019.1
20260504221037 15 352 1.6 8.0 0.00 0.00 0.00 41 1019.1
20260504220536 15 0 1.6 8.0 0.00 0.00 0.00 40 1019.0
20260504220055 15 42 0.0 8.0 0.00 0.00 0.00 43 1019.1
20260504215536 15 352 1.6 8.0 0.00 0.00 0.00 43 1019.1
20260504215035 14 57 1.6 4.8 0.00 0.00 0.00 46 1019.1
20260504214548 14 0 0.0 4.8 0.00 0.00 0.00 45 1019.2
20260504214036 14 0 0.0 4.8 0.00 0.00 0.00 46 1019.2
20260504213535 14 360 1.6 4.8 0.00 0.00 0.00 45 1019.1
20260504213046 14 329 0.0 8.0 0.00 0.00 0.00 47 1019.1
20260504212539 14 0 1.6 8.0 0.00 0.00 0.00 47 1019.3
20260504212036 15 340 3.2 8.0 0.00 0.00 0.00 47 1019.3
20260504211548 15 330 0.0 6.4 0.00 0.00 0.00 46 1019.3
20260504211035 15 330 1.6 6.4 0.00 0.00 0.00 47 1019.2
20260504210535 15 128 1.6 9.7 0.00 0.00 0.00 46 1019.2
20260504210047 15 0 1.6 9.7 0.00 0.00 0.00 46 1019.3
20260504205537 16 0 1.6 8.0 0.00 0.00 0.00 45 1019.3
20260504205036 16 304 1.6 8.0 0.00 0.00 0.00 45 1019.4
20260504204541 16 328 1.6 8.0 0.00 0.00 0.00 45 1019.3
20260504204037 16 343 3.2 12.9 0.00 0.00 0.00 44 1019.2
20260504203537 16 275 1.6 12.9 0.00 0.00 0.00 45 1019.4
20260504203041 16 47 0.0 4.8 0.00 0.00 0.00 46 1019.3
20260504202536 16 255 1.6 6.4 0.00 0.00 0.00 47 1019.4
20260504202036 16 281 1.6 6.4 0.00 0.00 0.00 45 1019.4
20260504201550 16 216 1.6 4.8 0.00 0.00 0.00 44 1019.5
20260504201036 16 81 1.6 8.0 0.00 0.00 0.00 44 1019.4
20260504200536 16 267 1.6 8.0 0.00 0.00 0.00 44 1019.5
20260504200047 16 19 1.6 8.0 0.00 0.00 0.00 43 1019.7
20260504195535 16 243 1.6 11.3 0.00 0.00 0.00 43 1019.6
20260504195035 16 0 0.0 11.3 0.00 0.00 0.00 44 1019.6
20260504194544 16 214 0.0 4.8 0.00 0.00 0.00 42 1019.7
20260504194035 16 304 1.6 11.3 0.00 0.00 0.00 44 1019.8
20260504193535 16 287 3.2 12.9 0.00 0.00 0.00 45 1019.8
20260504193048 16 246 3.2 12.9 0.00 0.00 0.00 46 1019.7
20260504192536 15 248 1.6 4.8 0.00 0.00 0.00 46 1019.8
20260504192036 15 294 1.6 4.8 0.00 0.00 0.00 46 1019.9
20260504191548 15 0 0.0 6.4 0.00 0.00 0.00 46 1019.9
20260504191036 15 205 1.6 6.4 0.00 0.00 0.00 46 1020.0
20260504190535 15 138 0.0 4.8 0.00 0.00 0.00 45 1020.0
20260504190046 15 334 0.0 3.2 0.00 0.00 0.00 46 1020.0
20260504185535 15 238 0.0 4.8 0.00 0.00 0.00 45 1020.1
20260504185035 16 287 1.6 4.8 0.00 0.00 0.00 44 1020.1
20260504184546 16 0 1.6 4.8 0.00 0.00 0.00 43 1020.1
20260504184035 16 271 1.6 6.4 0.00 0.00 0.00 43 1020.1
20260504183537 16 38 1.6 6.4 0.00 0.00 0.00 46 1020.1
20260504183047 16 0 1.6 6.4 0.00 0.00 0.00 44 1020.3
20260504182536 16 0 1.6 11.3 0.00 0.00 0.00 46 1020.2
20260504182035 15 298 1.6 11.3 0.00 0.00 0.00 50 1020.2
20260504181552 15 296 1.6 11.3 0.00 0.00 0.00 51 1020.1
20260504181035 15 342 1.6 6.4 0.00 0.00 0.00 49 1020.1
20260504180536 15 5 1.6 6.4 0.00 0.00 0.00 52 1020.2
20260504180042 15 246 1.6 6.4 0.00 0.00 0.00 51 1020.3
20260504175535 15 279 1.6 6.4 0.00 0.00 0.00 50 1020.3
20260504175036 15 0 1.6 6.4 0.00 0.00 0.00 50 1020.3
20260504174550 15 0 1.6 6.4 0.00 0.00 0.00 49 1020.3
20260504174037 15 252 1.6 6.4 0.00 0.00 0.00 50 1020.3
20260504173536 15 306 0.0 8.0 0.00 0.00 0.00 49 1020.3
20260504173049 15 216 1.6 8.0 0.00 0.00 0.00 49 1020.4
20260504172535 14 194 1.6 6.4 0.00 0.00 0.00 44 1020.5
20260504172036 14 117 1.6 6.4 0.00 0.00 0.00 46 1020.5
20260504171548 14 249 1.6 4.8 0.00 0.00 0.00 49 1020.7
20260504171036 14 0 1.6 4.8 0.00 0.00 0.00 49 1020.6
20260504170536 14 0 0.0 4.8 0.00 0.00 0.00 51 1020.5
20260504151035 10 73 1.6 8.0 0.00 0.00 0.00 46 1021.1
20260504150536 10 245 1.6 8.0 0.00 0.00 0.00 46 1021.3
20260504141035 7 270 4.8 9.7 0.00 0.00 0.00 44 1021.0
20260504140536 7 277 3.2 9.7 0.00 0.00 0.00 43 1021.1
20260504130539 7 246 3.2 6.4 0.00 0.00 0.00 34 1020.1